Altus, OK

8:05 PM CST on February 09, 2016 (GMT -0600)
Altus Municipal

Weather History for KAXS - December, 2011

Change the Weather History Date:

Friday, December 9, 2011

  Actual Average (KLTS) Record (KLTS)
Temperature  
Mean Temperature 36 °F -  
Max Temperature 41 °F 52 °F 75 °F (1996)
Min Temperature 32 °F 29 °F 10 °F (2005)
Degree Days  
Heating Degree Days 28    
Moisture  
Dew Point 30 °F    
Average Humidity 80    
Maximum Humidity 90    
Minimum Humidity 66    
Precipitation  
Precipitation 0.00 in - - ()
Sea Level Pressure  
Sea Level Pressure 30.33 in    
Wind  
Wind Speed 13 mph (NNE)    
Max Wind Speed 21 mph    
Max Gust Speed 23 mph    
Visibility 7 miles    
Events      
Averages and records for this station are not official NWS values.
T = Trace of Precipitation, MM = Missing Value Source: NWS Daily Summary

Daily Weather History Graph

Daily Weather History Graph

Search for Another Location

Airport or City:

Trip Planner

Search our weather history database for the weather conditions in past years. The results will help you decide how hot, cold, wet, or windy it might be!

Date:

Astronomy

Dec. 09, 2011 Rise Set
Actual Time 7:32 AM CST 5:26 PM CST
Civil Twilight 7:04 AM CST 5:54 PM CST
Nautical Twilight 6:33 AM CST 6:25 PM CST
Astronomical Twilight 6:02 AM CST 6:56 PM CST
Moon 4:51 PM CST (12/9) 6:41 AM CST (12/9)
Length of Visible Light 10h 49m
Length of Day
9h 53m
Waxing Gibbous, 99% of the Moon is Illuminated
Dec 9
Waxing Gibbous
Dec 10
Full
Dec 17
Last Quarter
Dec 24
New
Jan 1
First Quarter

Hourly Weather History & Observations

Time (CST) Temp. Windchill Dew Point Humidity Pressure Visibility Wind Dir Wind Speed Gust Speed Precip Events Conditions
12:15 AM 36.3 °F 28.9 °F 31.6 °F 83% 30.12 in 10.0 mi East 10.4 mph - N/A   Clear
12:35 AM 36.3 °F 29.5 °F 31.6 °F 83% 30.13 in 10.0 mi East 9.2 mph - N/A   Clear
12:55 AM 36.1 °F 29.3 °F 31.3 °F 83% 30.13 in 10.0 mi East 9.2 mph - N/A   Clear
1:15 AM 35.8 °F 29.4 °F 30.9 °F 82% 30.14 in 10.0 mi North 8.1 mph - N/A   Clear
1:35 AM 35.1 °F 28.6 °F 30.7 °F 84% 30.14 in 10.0 mi NNE 8.1 mph - N/A   Clear
1:55 AM 34.0 °F 28.0 °F 30.4 °F 87% 30.14 in 10.0 mi NNE 6.9 mph - N/A   Clear
2:15 AM 32.9 °F 25.9 °F 29.8 °F 88% 30.15 in 10.0 mi North 8.1 mph - N/A   Clear
2:35 AM 32.9 °F 26.7 °F 30.2 °F 90% 30.15 in 10.0 mi ENE 6.9 mph - N/A   Clear
4:35 AM 32.7 °F 25.7 °F 29.8 °F 89% 30.18 in 5.0 mi North 8.1 mph - N/A   Clear
4:55 AM 33.8 °F 23.9 °F 30.4 °F 87% 30.18 in 7.0 mi North 15.0 mph - N/A   Clear
5:15 AM 34.5 °F 25.3 °F 30.2 °F 84% 30.18 in 7.0 mi North 13.8 mph - N/A   Clear
5:35 AM 33.8 °F 26.4 °F 30.0 °F 86% 30.20 in 7.0 mi North 9.2 mph - N/A   Clear
5:55 AM 33.1 °F 25.5 °F 29.7 °F 87% 30.21 in 5.0 mi North 9.2 mph - N/A   Clear
6:15 AM 32.9 °F 24.1 °F 29.3 °F 87% 30.22 in 7.0 mi North 11.5 mph - N/A   Clear
6:35 AM 33.1 °F 22.6 °F 29.3 °F 86% 30.23 in 7.0 mi North 16.1 mph - N/A   Clear
6:55 AM 33.1 °F 22.2 °F 29.1 °F 85% 30.24 in 7.0 mi North 17.3 mph - N/A   Clear
7:15 AM 32.7 °F 21.4 °F 28.8 °F 85% 30.26 in 7.0 mi North 18.4 mph - N/A   Clear
7:35 AM 32.4 °F 20.3 °F 28.6 °F 86% 30.27 in 7.0 mi North 20.7 mph - N/A   Clear
7:55 AM 32.4 °F 21.7 °F 28.4 °F 85% 30.28 in 7.0 mi North 16.1 mph 20.7 mph N/A   Clear
8:15 AM 32.4 °F 22.5 °F 28.4 °F 85% 30.29 in 7.0 mi North 13.8 mph - N/A   Clear
8:35 AM 32.9 °F 21.6 °F 28.6 °F 84% 30.30 in 7.0 mi North 18.4 mph 23.0 mph N/A   Clear
8:55 AM 33.4 °F 23.1 °F 28.8 °F 83% 30.31 in 7.0 mi North 16.1 mph - N/A   Clear
9:15 AM 34.0 °F 23.4 °F 28.9 °F 82% 30.31 in 7.0 mi North 17.3 mph - N/A   Clear
9:55 AM 35.8 °F 25.4 °F 29.3 °F 77% 30.34 in 10.0 mi North 18.4 mph - N/A   Clear
10:35 AM 37.9 °F 28.9 °F 30.2 °F 74% 30.36 in 10.0 mi North 16.1 mph 23.0 mph N/A   Clear
10:55 AM 38.5 °F 29.9 °F 30.0 °F 72% 30.38 in 10.0 mi NNE 15.0 mph - N/A   Clear
11:15 AM 39.2 °F 30.5 °F 30.4 °F 71% 30.38 in 10.0 mi NNE 16.1 mph - N/A   Clear
11:35 AM 40.1 °F 32.0 °F 30.6 °F 69% 30.39 in 10.0 mi NNE 15.0 mph - N/A   Clear
11:55 AM 41.0 °F 32.8 °F 31.1 °F 68% 30.39 in 10.0 mi NNE 16.1 mph 21.9 mph N/A   Clear
12:15 PM 41.5 °F 33.2 °F 31.3 °F 67% 30.39 in 10.0 mi North 17.3 mph - N/A   Clear
12:35 PM 41.5 °F 33.5 °F 31.1 °F 66% 30.39 in 10.0 mi NNE 16.1 mph 20.7 mph N/A   Clear
12:55 PM 41.5 °F 32.9 °F 31.8 °F 68% 30.38 in 10.0 mi North 18.4 mph - N/A   Clear
1:15 PM 40.5 °F 31.5 °F 31.5 °F 70% 30.39 in 7.0 mi North 18.4 mph - N/A   Clear
1:35 PM 39.7 °F 30.6 °F 31.1 °F 71% 30.39 in 7.0 mi NNE 18.4 mph - N/A   Scattered Clouds
1:55 PM 39.4 °F 30.4 °F 30.9 °F 72% 30.39 in 7.0 mi North 17.3 mph - N/A   Scattered Clouds
2:15 PM 38.7 °F 29.5 °F 30.9 °F 74% 30.39 in 7.0 mi North 17.3 mph - N/A   Mostly Cloudy
2:35 PM 38.3 °F 29.3 °F 30.9 °F 75% 30.39 in 7.0 mi North 16.1 mph 21.9 mph N/A   Mostly Cloudy
2:55 PM 37.6 °F 28.4 °F 30.6 °F 76% 30.40 in 7.0 mi North 16.1 mph - N/A   Mostly Cloudy
3:15 PM 37.8 °F 29.0 °F 30.7 °F 76% 30.40 in 7.0 mi North 15.0 mph - N/A   Mostly Cloudy
3:35 PM 37.4 °F 27.5 °F 30.4 °F 76% 30.41 in 7.0 mi North 18.4 mph 23.0 mph N/A   Mostly Cloudy
3:55 PM 36.9 °F 27.8 °F 30.4 °F 77% 30.42 in 7.0 mi North 15.0 mph - N/A   Mostly Cloudy
4:15 PM 36.1 °F 25.9 °F 30.0 °F 78% 30.42 in 5.0 mi North 18.4 mph - N/A   Haze
4:35 PM 36.0 °F 26.3 °F 30.0 °F 79% 30.43 in 5.0 mi North 16.1 mph - N/A   Haze
5:15 PM 35.6 °F 25.9 °F 30.2 °F 81% 30.44 in 5.0 mi North 16.1 mph - N/A   Haze
5:35 PM 35.2 °F 26.2 °F 30.0 °F 81% 30.44 in 5.0 mi North 13.8 mph - N/A   Haze
5:55 PM 35.1 °F 26.4 °F 30.0 °F 82% 30.45 in 5.0 mi NNE 12.7 mph - N/A   Haze
6:15 PM 35.1 °F 25.2 °F 30.0 °F 82% 30.45 in 5.0 mi North 16.1 mph - N/A   Haze
6:35 PM 34.7 °F 26.4 °F 30.0 °F 83% 30.45 in 5.0 mi NNE 11.5 mph - N/A   Haze
6:55 PM 34.7 °F 25.1 °F 29.8 °F 82% 30.46 in 5.0 mi NNE 15.0 mph - N/A   Haze
7:15 PM 34.7 °F 25.5 °F 29.8 °F 82% 30.48 in 5.0 mi NNE 13.8 mph - N/A   Haze
7:35 PM 34.3 °F 25.9 °F 29.7 °F 83% 30.49 in 5.0 mi NNE 11.5 mph - N/A   Haze
7:55 PM 34.2 °F 26.2 °F 29.3 °F 82% 30.49 in 5.0 mi NNE 10.4 mph - N/A   Haze
8:15 PM 34.2 °F 26.8 °F 29.5 °F 83% 30.49 in 5.0 mi NE 9.2 mph - N/A   Haze
8:35 PM 34.0 °F 26.6 °F 29.3 °F 83% 30.49 in 5.0 mi NNE 9.2 mph - N/A   Haze
9:15 PM 33.8 °F 24.8 °F 29.3 °F 84% 30.51 in 5.0 mi NE 12.7 mph - N/A   Haze
9:35 PM 33.8 °F 25.8 °F 29.3 °F 84% 30.51 in 5.0 mi NNE 10.4 mph - N/A   Haze
9:55 PM 33.8 °F 25.8 °F 29.3 °F 84% 30.52 in 5.0 mi NNE 10.4 mph - N/A   Haze
10:15 PM 33.6 °F 26.8 °F 29.3 °F 84% 30.52 in 5.0 mi NNE 8.1 mph - N/A   Haze
10:35 PM 33.3 °F 26.4 °F 29.3 °F 85% 30.52 in 5.0 mi North 8.1 mph - N/A   Overcast
10:55 PM 33.1 °F 25.5 °F 29.3 °F 86% 30.53 in 5.0 mi North 9.2 mph - N/A   Overcast
11:15 PM 32.9 °F 25.3 °F 29.1 °F 86% 30.54 in 5.0 mi North 9.2 mph - N/A   Overcast
11:35 PM 32.7 °F 25.0 °F 29.1 °F 87% 30.55 in 5.0 mi North 9.2 mph - N/A   Overcast
11:55 PM 32.5 °F 25.5 °F 28.9 °F 87% 30.54 in 5.0 mi North 8.1 mph - N/A   Overcast